www.pogodaiklimat.ru

Погода и климат >> Архив погоды >> Индия >> Тамилнад >> Куддалор


ПОГОДА в Куддалоре

  • Прогноз погоды в Куддалоре
  • Монитор погоды в Куддалоре

АРХИВ ПОГОДЫ в Куддалоре

Время (UTC), дата Ветер
(напр.,м/с)
 
Видим.   Явления Облачность Т
(С)
Тd
(С)
f
(%)
Тe
(С)
Тes
(С)
Комфортность P
(гПа)
Po
(гПа)
Тmin
(С)
Tmax
(С)
R
(мм)
R24
(мм)
S
(см)
18 11.09 ЮЗ 3 2000 м ливневой дождь, в посл. час гроза 10/5 300 м
[Cb cap Ac As]
+24.0 +23.6 98 +33 +33 очень
душно
1010.3 1009.0 52
21 11.09 З 2 2000 м слаб. дождь 10/5 300 м
[Sc Ac As]
+24.2 +23.9 98 +33 +33 очень
душно
1009.2 1007.9 57
00 12.09 СВ 2 4000 м мгла {дождь} 10/5 300 м
[Sc Ac As]
+24.4 +24.4 100 +34 +34 очень
душно
1009.3 1008.0 58
03 12.09 З 2 4000 м слаб. морось 10/5 600 м
[Sc Ac As]
+25.6 +24.9 96 +36 +38 очень
душно
1011.0 1009.7 +23.5 +31.3 59
06 12.09 ЮЗ 1 10 км 6/3 600 м
[Sc Ac trans Ci fib]
+32.4 +24.7 64 +45 +59 опасность
перегрева
1009.7 1008.4
09 12.09 З 1 10 км 6/4 600 м
[Sc Ac trans Ci fib]
+33.0 +26.6 69 +50 +59 опасность
перегрева
1006.2 1004.9
12 12.09 З 1 10 км гроза без осадков 9/5 600 м
[Cb cap Ac trans Ci fib]
+29.2 +25.8 82 +44 +44 опасность
перегрева
1007.2 1005.9 +32.8
15 12.09 Ю 1 4000 м {гроза, морось} 10/5 600 м
[Sc Ac As]
+26.0 +24.0 89 +36 +36 очень
душно
1009.5 1008.1 0.0
18 12.09 штиль 0 2000 м слаб. морось {дождь} 10/5 600 м
[Sc Ac As]
+24.2 +23.9 98 +33 +33 очень
душно
1011.1 1009.8 6
21 12.09 штиль 0 4000 м {дождь, морось} 10/5 600 м
[Sc Ac As]
+24.0 +24.0 100 +33 +33 очень
душно
1009.4 1008.1 6
00 13.09 З 1 4000 м {морось} 10/5 600 м
[Sc Ac As]
+24.0 +24.0 100 +33 +33 очень
душно
1009.2 1007.9 6
03 13.09 ЮЗ 1 10 км 10/5 600 м
[Sc Ac As]
+25.0 +24.4 96 +35 +36 очень
душно
1011.6 1010.2 +23.6 +32.8 6
06 13.09 З 1 10 км 8/3 600 м
[Sc Ac trans Ci fib]
+31.4 +26.4 75 +48 +60 опасность
перегрева
1010.8 1009.5
09 13.09 Ю 1 10 км 8/4 600 м
[Sc Ac trans Ci fib]
+31.6 +27.2 78 +50 +57 опасность
перегрева
1007.4 1006.1
12 13.09 Ю 2 10 км 6/4 600 м
[Cb cap Ac trans Ci fib]
+29.0 +26.2 85 +44 +44 опасность
перегрева
1006.8 1005.5 +32.0
15 13.09 В 2 4000 м гроза, ливневой дождь 10/6 300 м
[Cb cap Ac As]
+25.0 +23.5 91 +34 +34 очень
душно
1009.6 1008.3 0.9
18 13.09 З 3 4000 м слаб. морось {гроза} 10/6 600 м
[Sc Ac As]
+24.4 +22.9 91 +32 +32 очень
душно
1011.0 1009.7 0.9
21 13.09 З 1 4000 м {дождь} 10/4 600 м
[Sc Ac trans Ci sp]
+24.0 +23.1 95 +32 +32 очень
душно
1008.7 1007.3 2
00 14.09 З 1 4000 м {дождь} 8/3 600 м
[Sc Ac trans Ci sp]
+24.0 +22.8 93 +32 +32 очень
душно
1008.8 1007.4 2
03 14.09 ЮЗ 1 10 км 8/1 600 м
[Sc Ac trans Ci fib]
+27.4 +24.5 84 +39 +43 очень
душно
1011.1 1009.8 +23.5 +32.0 2
06 14.09 ЮЗ 2 10 км 8/4 600 м
[Sc Ac trans Ci fib]
+32.0 +26.4 72 +48 +57 опасность
перегрева
1009.8 1008.5
09 14.09 Ю 2 10 км 9/4 600 м
[Sc Ac trans Ci sp]
+33.2 +25.0 62 +47 +52 опасность
перегрева
1006.5 1005.2
12 14.09 ЮВ 1 10 км 6/4 600 м
[Sc Ac trans Ci fib]
+30.4 +27.1 83 +48 +49 опасность
перегрева
1006.1 1004.8 +33.4
15 14.09 З 1 4000 м 9/4 600 м
[Sc Ac trans Ci fib]
+29.0 +26.8 88 +45 +45 опасность
перегрева
1009.0 1007.7
18 14.09 ЮЗ 2 4000 м 9/4 600 м
[Sc Ac trans]
+28.4 +25.6 85 +42 +42 опасность
перегрева
1009.4 1008.1
21 14.09 ЮЗ 1 4000 м зарница {гроза, дождь} 10/4 600 м
[Cb cap Ac As]
+24.0 +22.5 91 +31 +31 очень
душно
1008.6 1007.3 1
00 15.09 штиль 0 4000 м 10/5 600 м
[Sc Ac As]
+24.2 +23.4 95 +32 +32 очень
душно
1008.4 1007.1 1
03 15.09 СЗ 1 10 км 10/5 600 м
[Sc Ac As]
+25.4 +23.9 91 +35 +36 очень
душно
1010.4 1009.1 +23.2 +33.4 1
06 15.09 В 1 10 км 9/1 600 м
[Sc Ac As]
+29.8 +25.9 80 +45 +53 опасность
перегрева
1009.0 1007.7
09 15.09 Ю 2 10 км 9/6 600 м
[Cu med, cong Ac cuf Ci sp]
+31.4 +26.4 75 +48 +52 опасность
перегрева
1006.1 1004.8
12 15.09 Ю 1 4000 м мгла 10/5 600 м
[Cb cap Ac cuf Cs]
+30.2 +26.9 83 +47 +48 опасность
перегрева
1005.7 1004.4 +32.2
15 15.09 штиль 0 2000 м гроза без осадков 9/5 600 м
[Cb cap Ac cuf Cs]
+27.2 +23.7 81 +37 +37 очень
душно
1007.4 1006.1
18 15.09 З 4 2000 м зарница {гроза} 10/5 600 м
[Cb cap Ac As]
+26.0 +23.7 87 +35 +35 очень
душно
1009.4 1008.1
21 15.09 СЗ 2 2000 м мгла 9/3 600 м
[Sc Ac trans]
+25.2 +22.8 87 +33 +33 очень
душно
1006.9 1005.6
00 16.09 ЮЗ 1 2000 м мгла 9/3 600 м
[Sc Ac trans]
+24.6 +22.8 90 +33 +33 очень
душно
1007.1 1005.8
03 16.09 З 2 10 км 6/0 2000 м
[Ac trans]
+27.8 +24.6 83 +39 +44 очень
душно
1008.3 1007.0 +24.6 +32.2
06 16.09 З 2 10 км 5/3 600 м
[Sc Ac trans Ci fib]
+33.0 +24.5 61 +46 +59 опасность
перегрева
1007.1 1005.6
09 16.09 З 1 10 км 8/4 600 м
[Sc Ac trans Ci fib]
+33.4 +25.6 64 +48 +55 опасность
перегрева
1003.9 1002.6
12 16.09 ЮЗ 1 10 км гроза без осадков 9/4 600 м
[Cb cap Ac trans Ci fib]
+32.0 +24.3 64 +44 +45 опасность
перегрева
1003.1 1001.8 +34.4
15 16.09 штиль 0 2000 м слаб. морось {гроза, дождь} 10/5 300 м
[Sc Ac As]
+25.0 +24.4 96 +35 +35 очень
душно
1005.8 1004.5 21
18 16.09 ЮЗ 1 4000 м {дождь, морось} 10/5 600 м
[Sc Ac As]
+25.2 +25.2 100 +36 +36 очень
душно
1007.1 1005.8 21
21 16.09 З 1 4000 м 10/5 600 м
[Sc Ac As]
+24.6 +24.0 96 +34 +34 очень
душно
1005.5 1004.2 21
00 17.09 СЗ 2 4000 м 10/5 600 м
[Sc Ac As]
+25.0 +23.5 91 +34 +34 очень
душно
1004.3 1003.0 21
03 17.09 З 1 10 км 9/4 600 м
[Sc Ac trans Ci sp]
+26.4 +24.4 89 +37 +40 очень
душно
1007.1 1005.8 +23.5 +34.4 21
06 17.09 З 2 10 км 6/1 600 м
[Sc Ac trans Ci sp]
+31.4 +25.5 71 +46 +60 опасность
перегрева
1006.8 1005.5
09 17.09 З 1 10 км 9/4 600 м
[Sc Ac trans Ci fib]
+32.0 +26.4 72 +48 +54 опасность
перегрева
1003.8 1002.5
12 17.09 Ю 2 10 км 10/5 600 м
[Cb cap Ac trans Ci sp]
+29.4 +25.4 79 +43 +43 опасность
перегрева
1003.3 1002.0 +32.6
15 17.09 Ю 1 4000 м гроза, ливневой дождь 10/6 300 м
[Cb cap Ac As]
+24.4 +24.1 98 +34 +34 очень
душно
1006.4 1005.1 4
18 17.09 штиль 0 4000 м в посл. час морось {гроза, дождь} 10/5 600 м
[Sc Ac As]
+25.0 +24.1 95 +34 +34 очень
душно
1006.5 1005.2 5
21 17.09 З 1 4000 м 10/4 600 м
[Sc Ac trans Ci sp]
+25.4 +24.8 96 +36 +36 очень
душно
1004.3 1003.0 5
00 18.09 штиль 0 4000 м слаб. морось 10/5 600 м
[Sc Ac As]
+25.0 +24.4 96 +35 +35 очень
душно
1005.5 1004.2 5
03 18.09 Ю 1 10 км {морось} 10/4 600 м
[Sc Ac trans Ci sp]
+25.8 +25.2 96 +37 +40 очень
душно
1008.1 1006.8 +23.1 +32.6 6
06 18.09 З 1 10 км слаб. морось 10/5 600 м
[Sc Ac As]
+28.2 +26.2 89 +43 +46 опасность
перегрева
1008.1 1006.8 0.0
09 18.09 СЗ 1 10 км {морось} 9/4 600 м
[Sc Ac trans]
+30.0 +26.1 80 +45 +50 опасность
перегрева
1005.1 1003.8 0.0
12 18.09 Ю 1 10 км 9/4 600 м
[Sc Ac trans Ci sp]
+29.0 +26.2 85 +44 +44 опасность
перегрева
1004.4 1003.1 +30.4 0.0
15 18.09 ЮЗ 1 4000 м 8/4 600 м
[Sc Ac trans Ci fib]
+27.8 +26.1 90 +42 +42 опасность
перегрева
1006.4 1005.1 0.0

 

Местоположение метеостанции Куддалор (Тамилнад, Индия): широта 11.77 долгота 79.77 высота над уровнем моря 12 м.

В архиве по умолчанию представлена погода в Куддалоре за последнюю неделю. Архивные данные за месяц целиком и за предыдущие месяцы, начиная с января 2011 года, Вы можете получить, выбрав интересующий диапазон дат из раскрывающегося списка и нажав кнопку "Ввод!".


*Определитесь, кто Вы:
робот инопланетянин человек

Внимание! Время в таблицах - всемирное. Для получения местного времени необходимо прибавить поправку, которая равна 5.5 ч.

Смотрите также архив погоды в соседних городах и на ближайших метеорологических станциях:

Погода в Пондичерри (Пондичерри, Индия) (23 км)
Погода в Парангипеттае (Тамилнад, Индия) (30 км)
Погода в Карайкале (Пондичерри, Индия) (95 км)
Погода в Нагапаттинаме (Тамилнад, Индия) (112 км)
Погода в Танджавуре (Тамилнад, Индия) (130 км)
Погода в Ченнаи (Тамилнад, Индия) (144 км)
Погода в Веллоре (Тамилнад, Индия) (145 км)
Погода в Ченнаи (Тамилнад, Индия) (152 км)
Погода в Тирупатчере (Тамилнад, Индия) (153 км)
Погода в Терутани (Тамилнад, Индия) (156 км)

Пояснения к столбцам:

Ветер - указаны скорость ветра в м/с - средняя за 10 мин, порывы в срок и между сроками (в фигурных скобках) и направление, откуда дует ветер: С - северный, СВ - северо-восточный, В - восточный, ЮВ - юго-восточный, Ю - южный, ЮЗ - юго-западный, З - западный, СЗ - северо-западный.
Видимость - горизонтальная дальность видимости в метрах или километрах. При видимости от 1 до 10 км при отсутствии осадков обычно наблюдается дымка, при ухудшении видимости до 1 км и менее - туман. В сухую погоду видимость может ухудшаться дымом, пылью или мглою.
Явления - указаны атмосферные явления, наблюдавшиеся в срок или в последний час перед сроком; фигурными скобками обозначены явления, наблюдавшиеся между сроками (за 1-3 часа до срока); квадратными скобками обозначены град или гололедные отложения с указанием их диаметра в мм.
Облачность - указаны через наклонную черту общая и нижняя облачность в баллах и высота нижней границы облаков в метрах; квадратными скобками обозначены формы облаков: Ci - перистые, Cs - перисто-слоистые, Cc - перисто-кучевые, Ac - высококучевые, As - высокослоистые, Sc - слоисто-кучевые, Ns - слоисто-дождевые, Cu - кучевые, Cb - кучево-дождевые. Подробнее классификацию облаков см. в Атласе облаков (PDF).
T - Температура воздуха - температура, измеренная на высоте 2 м над землей.
Td - Температура точки росы - температура, при понижении до которой содержащийся в воздухе водяной пар достигнет насыщения.
f - Относительная влажность воздуха - влажноcть воздуха, измеренная на высоте 2 м над землей.
Te - Эффективная температура - температура, которую ощущает одетый по сезону человек в тени. Характеристика душности погоды. При расчете учитывается влияние влажности воздуха и скорости ветра на теплоощущения человека.
Tes - Эффективная температура на солнце - температура, которую ощущает человек, с поправкой на солнечный нагрев. Характеристика знойности погоды. Зависит от высоты солнца над горизонтом, облачности и скорости ветра. Ночью, в пасмурную погоду, а также при ветре 12 м/с и более поправка равна нулю.
P - Атмосферное давление - приведенное к уровню моря атмосферное давление.
Po - Атмосферное давление - измеренное на уровне метеостанции атмосферное давление.
Tmin - Минимальная температура - минимум температуры воздуха на высоте 2 м над землей.
Tmax - Максимальная температура - максимум температуры воздуха на высоте 2 м над землей.
R - Количество осадков - Количество выпавших осадков за период времени, мм. При наведении курсора мыши на число - период времени, за который выпало указанное количество осадков.
R24 - Количество осадков - Количество выпавших осадков за 24 часа, мм.
S - Снежный покров - Высота снежного покрова, см. При наведении курсора мыши на число - состояние снежного покрова и степень покрытия местности в баллах.